Regional Weather Roundup
Issued by NWS

Home | Current Version | Previous Version | Text Only | Print | Product List | Glossary Off
Versions: 1 2 3 4 5 6 7 8 9 10 11 12 13 14 15 16 17 18 19 20 21 22 23 24 25 26 27 28 29 30 31 32 33 34 35 36 37 38 39 40 41 42 43 44 45 46 47 48 49 50

000
ASUS43 KOAX 210410
RWRNE

WEATHER ROUNDUP FOR NEBRASKA
NATIONAL WEATHER SERVICE OMAHA NE
1100 PM CDT MON OCT 20 2014

NOTES: SATELLITE DATA IS BEING USED TO AUGMENT CLOUD COVER ABOVE
       12000 FEET.
       "FAIR" INDICATES FEW OR NO CLOUDS BELOW 12,000 FEET WITH NO
       SIGNIFICANT WEATHER AND/OR OBSTRUCTIONS TO VISIBILITY.

  * THESE STATIONS DO NOT REPORT WEATHER SUCH AS RAIN...SNOW OR FOG.

NEZ001>004-019>022-054>056-210500-
NEBRASKA PANHANDLE

CITY           SKY/WX    TMP DP  RH WIND       PRES   REMARKS
SCOTTSBLUFF    CLEAR     63  37  38 S14G20    30.01S
ALLIANCE       CLEAR     48  39  71 S10       30.01S
CHADRON        LGT RAIN  66  38  35 S22       29.93R
KIMBALL        CLEAR     54  36  50 S12       30.05S
SIDNEY         CLEAR     55  39  54 S13       30.07S
$$

NEZ057>060-069>072-079>082-210500-
SOUTHWEST NEBRASKA

CITY           SKY/WX    TMP DP  RH WIND       PRES   REMARKS
NORTH PLATTE   CLEAR     50  38  63 VRB5      30.05S
IMPERIAL       CLEAR     58  37  45 S12       30.07S
LEXINGTON      CLEAR     53  41  63 SE3       30.06S
MCCOOK         CLEAR     56  40  55 S7        30.07S
OGALLALA       CLEAR     59  40  49 SW5       30.05R
$$

NEZ005>010-023>029-035>040-094-210500-
NORTH CENTRAL NEBRASKA

CITY           SKY/WX    TMP DP  RH WIND       PRES   REMARKS
VALENTINE      CLEAR     55  39  54 S7        29.99S
AINSWORTH      CLEAR     57  41  55 S10       30.01F
BROKEN BOW     CLEAR     42  37  82 CALM      30.05S
O`NEILL        CLEAR     54  42  63 SE6       30.04S
ORD            CLEAR     46  38  73 CALM      30.04S
THEDFORD       CLEAR     61  40  46 S12       30.03S
$$

NEZ041-046>049-061>064-073>077-083>087-210500-
SOUTH CENTRAL NEBRASKA

CITY           SKY/WX    TMP DP  RH WIND       PRES   REMARKS
GRAND ISLAND   CLEAR     51  41  68 SE8       30.07S
AURORA         CLEAR     50  38  63 SE5       30.07S HAZE
HASTINGS       CLEAR     56  39  53 S5        30.07S
HEBRON         CLEAR     45  39  79 CALM      30.08S
HOLDREGE       CLEAR     55  41  60 CALM      30.07S
KEARNEY *      CLEAR     52  39  62 CALM      30.07F
YORK           CLEAR     55  37  50 SE7       30.07F
$$

NEZ011>018-030>034-042>045-210500-
NORTHEAST NEBRASKA

CITY           SKY/WX    TMP DP  RH WIND       PRES   REMARKS
NORFOLK        CLEAR     49  38  65 CALM      30.06S
ALBION         CLEAR     45  38  75 CALM      30.06F
BLAIR          CLEAR     57  38  48 CALM      30.07R
COLUMBUS *     CLEAR     43  34  70 CALM      30.08S
FREMONT        CLEAR     46  41  80 CALM      30.07S
TEKAMAH        CLEAR     43  38  82 CALM      30.07R
WAYNE          CLEAR     40  36  84 S3        30.08S
$$

NEZ050>053-065>068-078-088>093-210500-
SOUTHEAST NEBRASKA

CITY           SKY/WX    TMP DP  RH WIND       PRES   REMARKS
LINCOLN        CLEAR     42  37  82 N5        30.09S
OMAHA EPPLEY   CLEAR     49  44  83 CALM      30.08R
BEATRICE       CLEAR     45  38  77 CALM      30.08R
FALLS CITY     CLEAR     50  38  63 CALM      30.07R
NEBRASKA CITY  CLEAR     56  32  39 S3        30.07S
PLATTSMOUTH    CLEAR     57  35  43 CALM      30.07R
$$

NEZ044-045-051>053-067-210500-
OMAHA AREA

CITY           SKY/WX    TMP DP  RH WIND       PRES   REMARKS
OMAHA EPPLEY   CLEAR     49  44  83 CALM      30.08R
BLAIR          CLEAR     57  38  48 CALM      30.07R
FREMONT        CLEAR     46  41  80 CALM      30.07S
MILLARD        CLEAR     47  45  90 CALM      30.07R
OFFUTT AFB     CLEAR     44  44  99 W2        30.07R
PLATTSMOUTH    CLEAR     57  35  43 CALM      30.07R
WAHOO          FAIR      46  37  73 NE3       30.07S
$$


USA.gov is the U.S. government's official web portal to all federal, state and local government web resources and services.